Weather History for KBUF - November, 2010

Change the Weather History Date:

Monday, November 15, 2010

  Actual Average Record
Temperature  
Mean Temperature 44 °F 41 °F  
Max Temperature 51 °F 48 °F 70 °F (1927)
Min Temperature 36 °F 34 °F 8 °F (1933)
Degree Days  
Heating Degree Days 21 24  
Month to date heating degree days 351 325  
Since 1 July heating degree days 924 930  
Cooling Degree Days 0 0  
Month to date cooling degree days 0 0  
Year to date cooling degree days 744 544  
Moisture  
Dew Point 31 °F    
Average Humidity 64    
Maximum Humidity 85    
Minimum Humidity 42    
Precipitation  
Precipitation 0.00 in 0.14 in 1.64 in (1973)
Month to date precipitation 0.54 1.98  
Year to date precipitation 30.99 34.56  
Snow  
Snow 0.00 in 0.20 in 9.00 in (1974)
Month to date snowfall T 2.6  
Since 1 July snowfall T 3.5  
Since 1 September snowfall T 3.5  
Snow Depth 0.00 in    
Sea Level Pressure  
Sea Level Pressure 30.00 in    
Wind  
Wind Speed 7 mph (SSW)    
Max Wind Speed 16 mph    
Max Gust Speed 22 mph    
Visibility 10 miles    
Events      
T = Trace of Precipitation, MM = Missing Value Source: NWS Daily Summary

Daily Weather History Graph

Daily Weather History Graph

Search for Another Location

Airport or City:

Trip Planner

Search our weather history database for the weather conditions in past years. The results will help you decide how hot, cold, wet, or windy it might be!

Date:

Astronomy

Nov. 15, 2010 Rise Set
Actual Time 7:07 AM EST 4:51 PM EST
Civil Twilight 6:36 AM EST 5:22 PM EST
Nautical Twilight 6:02 AM EST 5:56 PM EST
Astronomical Twilight 5:28 AM EST 6:29 PM EST
Moon 1:41 PM EST (11/15) 1:02 AM EST (11/15)
Length of Visible Light 10h 45m
Length of Day
9h 44m
Waxing Gibbous, 69% of the Moon is Illuminated
Nov 15
Waxing Gibbous
Nov 21
Full
Nov 28
Last Quarter
Dec 5
New
Dec 13
First Quarter

Hourly Weather History & Observations

Time (EST) Temp. Windchill Dew Point Humidity Pressure Visibility Wind Dir Wind Speed Gust Speed Precip Events Conditions
12:54 AM 39.9 °F 34.5 °F 30.9 °F 70% 29.98 in 10.0 mi WNW 8.1 mph - N/A   Mostly Cloudy
1:54 AM 37.9 °F 35.5 °F 30.0 °F 73% 29.99 in 10.0 mi SW 3.5 mph - N/A   Mostly Cloudy
2:54 AM 36.0 °F 31.1 °F 28.9 °F 76% 30.00 in 10.0 mi South 5.8 mph - N/A   Scattered Clouds
3:54 AM 37.9 °F 32.7 °F 30.9 °F 76% 30.00 in 10.0 mi South 6.9 mph - N/A   Scattered Clouds
4:54 AM 37.0 °F 33.3 °F 32.0 °F 82% 30.00 in 10.0 mi South 4.6 mph - N/A   Scattered Clouds
5:54 AM 37.9 °F 33.5 °F 33.1 °F 83% 30.00 in 10.0 mi South 5.8 mph - N/A   Scattered Clouds
6:54 AM 37.0 °F 32.4 °F 32.0 °F 82% 30.01 in 10.0 mi South 5.8 mph - N/A   Scattered Clouds
7:54 AM 37.0 °F 32.4 °F 32.0 °F 82% 30.02 in 9.0 mi SSE 5.8 mph - N/A   Scattered Clouds
8:54 AM 41.0 °F 36.4 °F 33.1 °F 73% 30.02 in 10.0 mi South 6.9 mph - N/A   Scattered Clouds
9:54 AM 46.0 °F 41.4 °F 33.1 °F 61% 30.02 in 10.0 mi SSW 9.2 mph - N/A   Scattered Clouds
10:54 AM 48.0 °F - 33.1 °F 56% 30.02 in 10.0 mi SW 10.4 mph - N/A   Scattered Clouds
11:54 AM 48.9 °F - 32.0 °F 52% 30.02 in 10.0 mi SSW 13.8 mph - N/A   Scattered Clouds
12:54 PM 50.0 °F - 28.9 °F 44% 30.01 in 10.0 mi SW 16.1 mph - N/A   Scattered Clouds
1:54 PM 50.0 °F - 28.0 °F 43% 30.00 in 10.0 mi WSW 13.8 mph - N/A   Mostly Cloudy
2:54 PM 50.0 °F - 28.0 °F 43% 29.98 in 10.0 mi WSW 10.4 mph - N/A   Mostly Cloudy
3:54 PM 48.9 °F - 28.9 °F 46% 29.97 in 10.0 mi SW 8.1 mph - N/A   Scattered Clouds
4:54 PM 46.0 °F 44.8 °F 30.0 °F 54% 30.00 in 10.0 mi West 3.5 mph - N/A   Scattered Clouds
5:54 PM 45.0 °F 42.6 °F 32.0 °F 60% 30.01 in 10.0 mi South 4.6 mph - N/A   Mostly Cloudy
6:54 PM 44.1 °F 42.5 °F 32.0 °F 63% 30.01 in 10.0 mi SSW 3.5 mph - N/A   Mostly Cloudy
7:54 PM 42.1 °F 40.2 °F 32.0 °F 67% 30.01 in 10.0 mi South 3.5 mph - N/A   Mostly Cloudy
8:54 PM 42.1 °F 39.2 °F 30.9 °F 65% 30.01 in 10.0 mi SE 4.6 mph - N/A   Mostly Cloudy
9:54 PM 41.0 °F 38.0 °F 28.9 °F 62% 30.01 in 10.0 mi SSE 4.6 mph - N/A   Mostly Cloudy
10:54 PM 39.9 °F 35.8 °F 28.9 °F 65% 30.01 in 10.0 mi South 5.8 mph - N/A   Mostly Cloudy
11:54 PM 39.9 °F 37.8 °F 28.9 °F 65% 30.01 in 10.0 mi South 3.5 mph - N/A   Overcast